This demonstration page uses our WeatherBlox Daily Observations layout. Learn more.

Left ArrowRight Arrow

39.08367, -84.50855

Hourly Observations for November 19, 2018

Temp ( °F °C ) Dew Point ( °F °C ) Humidity (%) Winds ( mph kmh ) Pressure ( in mb ) Visibility ( mi km ) Precip ( " mm )
12:53 am 00:53 Cloudy with Mist and Fog 43 6.1 39 3.9 86 86 NNE 5 7 30.15 1021 6 10 0.00 0.00
1:16 am 01:16 Cloudy with Mist and Fog 43 6.1 39 3.9 86 86 NNE 5 7 30.15 1021 6 10 0.00 0.00
1:53 am 01:53 Cloudy with Mist and Fog 43 6.1 39 3.9 86 86 NNE 3 6 30.13 1020 6 10 0.00 0.00
2:53 am 02:53 Cloudy with Mist and Fog 43 6.1 39 3.9 86 86 NE 5 7 30.12 1020 6 10 0.00 0.00
3:40 am 03:40 Cloudy with Light Rain 43 6.1 39 3.9 86 86 NNE 5 7 30.12 1020 5 8 0.00 0.03
3:53 am 03:53 Cloudy with Light Rain 42 5.6 40 4.4 92 92 NNE 3 6 30.12 1020 5 8 0.01 0.25
4:02 am 04:02 Cloudy with Light Rain 42 5.6 40 4.4 92 92 NE 5 7 30.12 1020 5 8 0.00 0.03
4:12 am 04:12 Cloudy with Mist and Fog 42 5.6 40 4.4 92 92 Calm 30.12 1020 5 8 0.00 0.03
4:29 am 04:29 Cloudy with Mist and Fog 42 5.6 40 4.4 92 92 NNE 5 7 30.12 1020 5 8 0.00 0.03
4:53 am 04:53 Cloudy with Mist and Fog 42 5.6 40 4.4 92 92 ENE 6 9 30.11 1020 5 8 0.00 0.03
5:53 am 05:53 Cloudy with Mist and Fog 42 5.6 40 4.4 92 92 N 6 9 30.10 1019 5 8 0.00 0.00
6:11 am 06:11 Cloudy with Light Rain 42 5.6 40 4.4 92 92 N 5 7 30.09 1019 4 6 0.01 0.25
6:20 am 06:20 Cloudy with Light Rain 42 5.6 40 4.4 92 92 NNE 6 9 30.09 1019 4 6 0.01 0.25
6:35 am 06:35 Cloudy with Mist and Fog 41 5 40 4.4 96 96 N 6 9 30.09 1019 4 6 0.01 0.25
6:53 am 06:53 Cloudy with Light Rain 41 5 40 4.4 96 96 NE 7 11 30.09 1019 3 5 0.02 0.51
7:08 am 07:08 Cloudy with Rain 41 5 40 4.4 96 96 ENE 5 7 30.09 1019 3 4 0.03 0.76
7:17 am 07:17 Cloudy with Light Rain 41 5 40 4.4 96 96 ENE 5 7 30.09 1019 4 6 0.03 0.76
7:53 am 07:53 Cloudy with Light Rain 41 5 41 5 100 100 NE 5 7 30.08 1019 3 5 0.04 1.02
8:08 am 08:08 Cloudy with Rain 41 5 41 5 100 100 NNE 5 7 30.09 1019 2 3 0.01 0.25
8:53 am 08:53 Cloudy with Rain 41 5 41 5 100 100 NNE 5 7 30.08 1019 2 3 0.07 1.78
9:53 am 09:53 Cloudy with Light Rain 42 5.6 41 5 96 96 N 3 6 30.07 1018 2 2 0.05 1.27
10:53 am 10:53 Cloudy with Mist and Fog 43 6.1 42 5.6 97 97 N 3 6 30.06 1018 3 5 0.01 0.25
11:53 am 11:53 Cloudy with Mist and Fog 45 7.2 43 6.1 93 93 Calm 30.04 1017 3 5 0.00 0.00
12:53 pm 12:53 Cloudy with Mist and Fog 44 6.7 42 5.6 93 93 W 3 6 30.02 1017 4 6 0.00 0.00
1:53 pm 13:53 Cloudy with Mist and Fog 44 6.7 43 6.1 96 96 NNW 6 9 30.01 1016 3 5 0.00 0.00
2:53 pm 14:53 Cloudy with Mist and Fog 44 6.7 43 6.1 96 96 N 5 7 30.00 1016 2 3 0.00 0.00
3:53 pm 15:53 Cloudy with Light Rain 44 6.7 43 6.1 96 96 NW 3 6 30.01 1016 3 5 0.01 0.25
4:53 pm 16:53 Cloudy with Mist and Fog 43 6.1 42 5.6 97 97 WNW 3 6 30.03 1017 4 6 0.00 0.03
5:53 pm 17:53 Cloudy with Mist and Fog 43 6.1 41 5 93 93 NW 7 11 30.04 1017 4 6 0.00 0.00
6:35 pm 18:35 Cloudy with Mist and Fog 43 6.1 41 5 93 93 NW 3 6 30.06 1018 6 10 0.01 0.25
6:53 pm 18:53 Cloudy with Mist and Fog 43 6.1 40 4.4 89 89 VRB 5 7 30.06 1018 6 10 0.01 0.25
7:53 pm 19:53 Cloudy 42 5.6 40 4.4 92 92 NNW 5 7 30.07 1018 9 14 0.00 0.00
8:48 pm 20:48 Cloudy 43 6 39 4 87 87 NW 5 7 30.06 1018 10 16 0.00 0.00
8:53 pm 20:53 Cloudy 42 5.6 39 3.9 89 89 NW 8 13 30.08 1019 10 16 0.00 0.00
9:53 pm 21:53 Cloudy 42 5.6 38 3.3 85 85 NW 6 9 30.08 1019 10 16 0.00 0.00
10:53 pm 22:53 Cloudy 41 5 39 3.9 93 93 NW 3 6 30.08 1019 10 16 0.00 0.00
11:53 pm 23:53 Cloudy 41 5 38 3.3 89 89 NW 3 6 30.08 1019 8 13 0.00 0.00

Powered by AerisWeather